Center Conway, NH (03813)

1:24 PM EST on February 14, 2016 (GMT -0500)
Pine Tree School | | Change Station
CLOSE
Current Station
Personal Weather Station
Location: Center Conway, NH
Elevation: 450 ft
Nearby Weather Stations

Elev 450 ft 43.99 °N, 71.06 °W | Updated 13 minutes ago

Clear
Clear
14.7 °F
Feels Like 15 °F
N
3.0
Wind Variable Wind from WNW
Gusts 11.0 mph

Today
High -- | Low -- °F
--% Chance of Precip.
Yesterday
High -- | Low -- °F
Precip. -- in
Pressure 30.29 in
Visibility 10.0 miles
Clouds Clear
Windchill 15 °F
Dew Point -18 °F
Humidity 21%
Rainfall Not available.
Snow Depth Not available.
6:45 AM 5:11 PM
Waxing Crescent, 44% visible
METAR KIZG 141754Z AUTO 28008G15KT 10SM CLR M13/M28 A3024 RMK AO2 SLP257 60000 T11281283 11128 21289 55003
Pressure 30.29 in
Visibility 10.0 miles
Clouds Clear
Windchill 15 °F
Dew Point -18 °F
Humidity 21%
Rainfall Not available.
Snow Depth Not available.
6:45 AM 5:11 PM
Waxing Crescent, 44% visible
METAR KIZG 141754Z AUTO 28008G15KT 10SM CLR M13/M28 A3024 RMK AO2 SLP257 60000 T11281283 11128 21289 55003

10-Day Weather Forecast

Almanac

Astronomy

Feb. 14, 2016 Rise Set
Actual Time
Civil Twilight
Nautical Twilight
Astronomical Twilight
Moon
Length of Visible Light
Length of Day
Tomorrow will be .
, % of the Moon is Illuminated

Today's Extremes

State Highs State Lows

Community

WunderPhotos

Upload Photos

1,892,869 photos uploaded!

WunderBlog® & News

Nearby

Air Quality

  Air Quality AQ Index Pollutant
Not available.

Snow Depth

Station Depth Elevation

Earthquake Activity

City Distance Mag. Time & Date
Minimum magnitude displayed is 2.5.

Coastal Water Temperatures

Place Temperature

Stations

Nearby Weather Stations

Station Location Temp. Windchill Dew Point Humidity Wind Precip. Elev Updated Type
                   

Watches & Warnings

There are currently no watches in effect.